EW1689 Weather Reports


Display with metric or nautical units.
time (UTC)temp
F
wind
direction
speed
MPH
gust
MPH
rain 1hr
in
rain 24hr
in
rain mn
in
humidity
%
barometer
mb
20260502190537 86 0 4.0 10.0 0.00 0.00 0.00 19 1013.7
20260502185516 86 0 2.0 3.0 0.00 0.00 0.00 19 1013.8
20260502184518 86 0 2.0 6.0 0.00 0.00 0.00 20 1014.0
20260502183516 86 0 3.0 7.0 0.00 0.00 0.00 20 1014.1
20260502182516 85 0 2.0 5.0 0.00 0.00 0.00 21 1014.4
20260502181517 85 0 2.0 5.0 0.00 0.00 0.00 21 1014.5
20260502180516 84 0 2.0 7.0 0.00 0.00 0.00 20 1014.5
20260502170516 82 0 4.0 7.0 0.00 0.00 0.00 28 1014.8
20260502163516 80 0 6.0 11.0 0.00 0.00 0.00 29 1014.7
20260502162517 80 0 4.0 8.0 0.00 0.00 0.00 30 1014.7
20260502161516 80 0 4.0 11.0 0.00 0.00 0.00 30 1014.5
20260502160516 79 0 4.0 10.0 0.00 0.00 0.00 30 1014.4
20260502151516 78 0 4.0 11.0 0.00 0.00 0.00 31 1014.4
20260502150536 78 0 3.0 6.0 0.00 0.00 0.00 27 1014.3
20260502130515 68 0.0 0.0 0.00 0.00 0.00 27 1012.8
20260502123515 68 0.0 0.0 0.00 0.00 0.00 27 1012.4
20260502122535 68 0.0 0.0 0.00 0.00 0.00 26 1012.4
20260502121515 69 0.0 1.0 0.00 0.00 0.00 26 1012.4
20260502120536 69 0.0 1.0 0.00 0.00 0.00 25 1012.3
20260502115516 70 0.0 1.0 0.00 0.00 0.00 25 1012.4
20260502114516 70 0.0 1.0 0.00 0.00 0.00 25 1012.3
20260502113516 70 0.0 1.0 0.00 0.00 0.00 25 1012.3
20260502112516 70 0.0 1.0 0.00 0.00 0.00 25 1012.3
20260502111515 70 0.0 1.0 0.00 0.00 0.00 25 1012.3
20260502110517 70 0.0 1.0 0.00 0.00 0.00 25 1012.2
20260502105518 70 0.0 1.0 0.00 0.00 0.00 25 1012.3
20260502104518 71 0.0 0.0 0.00 0.00 0.00 25 1012.2
20260502103658 71 0.0 2.0 0.00 0.00 0.00 24 1012.2
20260502102517 71 0.0 1.0 0.00 0.00 0.00 24 1012.2
20260502101518 70 0.0 2.0 0.00 0.00 0.00 25 1012.1
20260502100517 70 0.0 1.0 0.00 0.00 0.00 25 1012.0
20260502091517 70 0.0 0.0 0.00 0.00 0.00 27 1011.8
20260502090517 71 0.0 0.0 0.00 0.00 0.00 26 1011.8
20260502071517 72 0.0 0.0 0.00 0.00 0.00 26 1011.4
20260502070517 73 0.0 1.0 0.00 0.00 0.00 26 1011.5
20260502065536 73 0.0 0.0 0.00 0.00 0.00 26 1011.5
20260502064516 73 0.0 1.0 0.00 0.00 0.00 25 1011.4
20260502063516 73 0.0 0.0 0.00 0.00 0.00 27 1011.1
20260502062516 73 0.0 0.0 0.00 0.00 0.00 27 1010.9
20260502061516 73 0.0 0.0 0.00 0.00 0.00 28 1010.8
20260502060557 74 0.0 0.0 0.00 0.00 0.00 27 1010.7
20260502055516 75 0.0 0.0 0.00 0.00 0.00 26 1010.8
20260502054516 75 0.0 2.0 0.00 0.00 0.00 25 1010.5
20260502053536 75 0.0 1.0 0.00 0.00 0.00 25 1010.4
20260502052516 75 0.0 0.0 0.00 0.00 0.00 25 1010.3
20260502051536 76 0.0 0.0 0.00 0.00 0.00 25 1010.3
20260502050516 76 0.0 1.0 0.00 0.00 0.00 25 1010.4
20260502045516 76 0 1.0 2.0 0.00 0.00 0.00 24 1010.3
20260502044517 76 0 1.0 2.0 0.00 0.00 0.00 24 1010.1
20260502043516 76 0 1.0 1.0 0.00 0.00 0.00 24 1010.0
20260502042516 76 0.0 2.0 0.00 0.00 0.00 24 1009.8
20260502041516 76 0.0 0.0 0.00 0.00 0.00 24 1009.6
20260502040516 76 0.0 3.0 0.00 0.00 0.00 24 1009.4
20260502035556 76 0.0 2.0 0.00 0.00 0.00 24 1009.3
20260502034517 77 0.0 1.0 0.00 0.00 0.00 24 1009.2
20260502033516 77 0.0 1.0 0.00 0.00 0.00 23 1009.1
20260502032536 78 0 1.0 2.0 0.00 0.00 0.00 23 1009.1
20260502031536 78 0.0 1.0 0.00 0.00 0.00 22 1008.8
20260502030516 79 0.0 0.0 0.00 0.00 0.00 22 1008.8
20260502025516 79 0.0 1.0 0.00 0.00 0.00 21 1008.7
20260502024516 80 0.0 2.0 0.00 0.00 0.00 21 1008.5
20260502023516 80 0 1.0 3.0 0.00 0.00 0.00 21 1008.4
20260502023126 80 0 1.0 3.0 0.00 0.00 0.00 21 1008.3
20260502022036 81 0 1.0 3.0 0.00 0.00 0.00 21 1008.2
20260502021016 81 0 1.0 4.0 0.00 0.00 0.00 21 1008.2
20260502020016 81 0 1.0 3.0 0.00 0.00 0.00 20 1008.1
20260502015015 82 0 1.0 3.0 0.00 0.00 0.00 20 1007.9
20260502014027 82 0.0 1.0 0.00 0.00 0.00 19 1007.9
20260502013015 83 0 1.0 5.0 0.00 0.00 0.00 18 1007.7
20260502012015 83 0 1.0 7.0 0.00 0.00 0.00 18 1007.9
20260502011016 83 0 1.0 3.0 0.00 0.00 0.00 18 1008.0
20260502010036 84 0 1.0 3.0 0.00 0.00 0.00 18 1008.0
20260502005015 84 0 1.0 4.0 0.00 0.00 0.00 19 1008.0
20260502004017 84 0 1.0 3.0 0.00 0.00 0.00 19 1007.8
20260502003017 84 0 2.0 6.0 0.00 0.00 0.00 20 1007.8
20260502002018 85 0 1.0 5.0 0.00 0.00 0.00 20 1008.0
20260502001017 85 0.0 3.0 0.00 0.00 0.00 19 1008.0
20260502000017 86 0 1.0 4.0 0.00 0.00 0.00 19 1008.0
20260501235017 86 0 1.0 5.0 0.00 0.00 0.00 20 1008.1
20260501234017 86 0 1.0 7.0 0.00 0.00 0.00 20 1008.1
20260501233017 86 0 2.0 7.0 0.00 0.00 0.00 19 1008.2
20260501232017 87 0 3.0 7.0 0.00 0.00 0.00 19 1008.3
20260501231017 87 0 2.0 7.0 0.00 0.00 0.00 20 1008.3
20260501230017 86 0 2.0 6.0 0.00 0.00 0.00 21 1008.4
20260501225017 87 203 2.0 7.0 0.00 0.00 0.00 20 1008.5
20260501224017 87 158 2.0 6.0 0.00 0.00 0.00 20 1008.8
20260501223017 88 180 1.0 3.0 0.00 0.00 0.00 18 1008.8
20260501222017 88 180 2.0 6.0 0.00 0.00 0.00 17 1009.0
20260501221017 90 270 1.0 3.0 0.00 0.00 0.00 17 1009.2
20260501220017 90 248 1.0 3.0 0.00 0.00 0.00 17 1009.3
20260501215017 89 0 1.0 3.0 0.00 0.00 0.00 19 1009.5
20260501214038 88 0 1.0 4.0 0.00 0.00 0.00 20 1009.5
20260501213017 87 0 1.0 3.0 0.00 0.00 0.00 21 1009.7
20260501212017 86 0 1.0 3.0 0.00 0.00 0.00 21 1009.9
20260501211158 85 0 2.0 7.0 0.00 0.00 0.00 19 1009.8
20260501210017 86 0 2.0 5.0 0.00 0.00 0.00 18 1010.0
20260501205017 86 0 1.0 5.0 0.00 0.00 0.00 20 1010.1
20260501204017 85 0 1.0 3.0 0.00 0.00 0.00 22 1010.3
20260501203017 84 0 2.0 9.0 0.00 0.00 0.00 23 1010.4
20260501202017 84 0 2.0 7.0 0.00 0.00 0.00 23 1010.4
20260501201017 83 0 1.0 4.0 0.00 0.00 0.00 24 1010.5
20260501200017 84 0 2.0 6.0 0.00 0.00 0.00 22 1010.5
20260501195017 84 0 1.0 5.0 0.00 0.00 0.00 24 1010.6
20260501194016 86 0 1.0 5.0 0.00 0.00 0.00 22 1010.9
20260501193037 84 0 1.0 3.0 0.00 0.00 0.00 23 1010.9
20260501192017 83 0 1.0 7.0 0.00 0.00 0.00 25 1011.0
20260501191037 82 0 1.0 5.0 0.00 0.00 0.00 26 1011.1